Showing default

KSF3-B, 55019

Orbit data source: Space-Track

KSF3-B, 55019 is a payload satellite owned by Kleos Space (LU) in LEO that was launched on Tue, 03 Jan 2023 UTC via an FALCON 9 launch vehicle from the Air Force Eastern Test Range (AFETR). Payload-class satellites include a variety of spacecraft equipped with specific instruments for various scientific and technological missions. These include communications satellites like Starlink; space stations such as the ISS; scientific satellites like the Hubble; Earth observation satellites from companies like Planet Labs, Umbra, and HawkEye 360; GPS; miniature CubeSats for education and research; and military/defense satellites.

Not visible in the next 10 days
Identifier
55019, 2023-001L
Orbit
LEO
Country
Flag of UnknownUnknown / LUXE
Related business
Manufacturer
ISIS BV
Mission
Operational Commercial Sigint
Bus & Motor
CUBESAT 6U, Unknown motor
Mass
~10 kg wet, ~10 kg dry
Launch date (UTC)
2023-01-03 (3 years ago)
Launch vehicle
FALCON 9
Launch site
Air Force Eastern Test Range (AFETR)
Object type
Payload
Rocket body
Debris
Shape & HBR
Box, 0.1 m
Radar Cross Section
0.080 m², Medium (>0.1 m² and < 1m²)

Expand to show TLE details & history
Last TLE update: 16 hours ago

TLE from 16 hours ago
0 KSF3-B
1 55019U 23001L   25340.69660748  .04672973  24059-5  15832-2 0  9990
2 55019  97.3262  58.9763 0008987 296.6951  63.3421 16.25536734163820
Epoch: 2025-12-06T16:43Z
TLE epoch observation values (Epoch: 2025-12-06T16:43:06.886Z)
Latitude
0.00005°
Longitude
92.47697°
Altitude
205.145 km
Speed
7.785 km/s
True Right ascension
03h 55m 54s
True Declination
0° 00' 00"
Sunlit
Object was in full shadow at epoch
Visualization orbit readout
Latitude
Unknown
Longitude
Unknown
Altitude
Unknown
Speed
Unknown
Apparent Right ascension
Unknown
Apparent Declination
Unknown
Sunlit
N/A
Visualization observer readout
Local Sidereal Time
06:26:47
Azimuth
Unknown
Elevation
Unknown
Doppler factor
Unknown
Orbital elements
Apogee altitude
207.298 km
Perigee altitude
195.472 km
Semi-major axis
6,579.522 km
Eccentricity
0.0009
Inclination
97.3262°
RAAN
58.9763°
Arg. of periapsis
296.6951°
True anomaly
63.43418°
Mean anomaly
63.3421°
Eccentric anomaly
63.38814°
Mean motion
4.06679 °/min
Orbital period
88.52 mins
BSTAR
0.0015832
Loading maneuver chart data...
Computing Atmospheric mass density...

Documentation

Showing up to 5 results
|